• In Spain
  • List of Countries
  • For 7 days
  • Water Temperature
  • Satellite Maps
  • Weather Map
  • Weather Widgets
  • user-avatar
    Login

    Hourly Weather Kakanj

    Today, 23 September, Sunday

    Time Temperature Precipitation Wind Pressure Humidity
    00:00 +14°C° 0 mm 1 mps 726 mmHg 88%
    01:00 +14°C° 0 mm 1 mps 726 mmHg 88%
    02:00 +14°C° 0 mm 1 mps 726 mmHg 89%
    03:00 +14°C° 0 mm 1 mps 726 mmHg 89%
    04:00 +14°C° 0 mm 1 mps 726 mmHg 90%
    05:00 +15°C° 0 mm 1 mps 726 mmHg 86%
    06:00 +15°C° 0 mm 0 mps 726 mmHg 82%
    07:00 +16°C° 0 mm 0 mps 727 mmHg 79%
    08:00 +19°C° 0 mm 0 mps 727 mmHg 69%
    09:00 +25°C° 0 mm 1 mps 727 mmHg 59%
    10:00 +28°C° 0 mm 1 mps 727 mmHg 49%
    11:00 +29°C° 0 mm 1 mps 727 mmHg 47%
    12:00 +30°C° 0 mm 1 mps 727 mmHg 45%
    13:00 +30°C° 0 mm 1 mps 726 mmHg 42%
    14:00 +30°C° 0 mm 1 mps 726 mmHg 45%
    15:00 +29°C° 0 mm 2 mps 725 mmHg 48%
    16:00 +29°C° 0 mm 2 mps 725 mmHg 51%
    17:00 +26°C° 0 mm 2 mps 724 mmHg 60%
    18:00 +24°C° 0 mm 2 mps 724 mmHg 69%
    19:00 +21°C° 0 mm 1 mps 724 mmHg 78%
    20:00 +20°C° 0 mm 2 mps 723 mmHg 80%
    21:00 +19°C° 0 mm 2 mps 723 mmHg 83%
    22:00 +19°C° 0 mm 2 mps 723 mmHg 85%
    23:00 +18°C° 0 mm 2 mps 722 mmHg 84%

    Tomorrow, 24 September, Monday

    Time Temperature Precipitation Wind Pressure Humidity
    00:00 +18°C° 0 mm 2 mps 722 mmHg 82%
    01:00 +18°C° 0 mm 2 mps 722 mmHg 81%
    02:00 +18°C° 0 mm 2 mps 721 mmHg 80%
    03:00 +18°C° 0 mm 3 mps 721 mmHg 79%
    04:00 +18°C° 0 mm 3 mps 721 mmHg 78%
    05:00 +18°C° 0 mm 2 mps 722 mmHg 78%
    06:00 +19°C° 0 mm 2 mps 723 mmHg 77%
    07:00 +20°C° 0 mm 1 mps 723 mmHg 76%
    08:00 +18°C° 1 mm 2 mps 725 mmHg 81%
    09:00 +16°C° 1 mm 3 mps 726 mmHg 85%
    10:00 +13°C° 1 mm 4 mps 727 mmHg 89%
    11:00 +12°C° 0.3 mm 3 mps 728 mmHg 89%
    12:00 +11°C° 0.3 mm 3 mps 728 mmHg 89%
    13:00 +12°C° 0.3 mm 2 mps 729 mmHg 89%
    14:00 +10°C° 0.2 mm 2 mps 729 mmHg 89%
    15:00 +10°C° 0.2 mm 2 mps 729 mmHg 89%
    16:00 +9°C° 0.2 mm 2 mps 729 mmHg 89%
    17:00 +9°C° 0 mm 2 mps 729 mmHg 88%
    18:00 +10°C° 0 mm 1 mps 729 mmHg 88%
    19:00 +10°C° 0 mm 1 mps 730 mmHg 87%
    20:00 +9°C° 0 mm 1 mps 730 mmHg 88%
    21:00 +9°C° 0 mm 1 mps 730 mmHg 88%
    22:00 +8°C° 0 mm 1 mps 731 mmHg 88%
    23:00 +7°C° 0 mm 1 mps 731 mmHg 88%

    Day after tomorrow, 25 September, Tuesday

    Time Temperature Precipitation Wind Pressure Humidity
    00:00 +7°C° 0 mm 1 mps 731 mmHg 88%
    01:00 +6°C° 0 mm 1 mps 731 mmHg 88%
    02:00 +6°C° 0 mm 1 mps 732 mmHg 89%
    03:00 +6°C° 0 mm 1 mps 732 mmHg 89%
    04:00 +5°C° 0 mm 1 mps 732 mmHg 89%
    05:00 +6°C° 0 mm 1 mps 732 mmHg 87%
    06:00 +7°C° 0 mm 1 mps 733 mmHg 85%
    07:00 +7°C° 0 mm 1 mps 733 mmHg 83%
    08:00 +8°C° 0 mm 2 mps 733 mmHg 72%
    09:00 +10°C° 0 mm 3 mps 733 mmHg 61%
    10:00 +11°C° 0 mm 3 mps 734 mmHg 50%
    11:00 +12°C° 0 mm 4 mps 733 mmHg 45%
    12:00 +13°C° 0 mm 4 mps 733 mmHg 41%
    13:00 +13°C° 0 mm 5 mps 733 mmHg 37%
    14:00 +13°C° 0 mm 4 mps 733 mmHg 38%
    15:00 +12°C° 0 mm 4 mps 733 mmHg 39%
    16:00 +12°C° 0 mm 4 mps 733 mmHg 40%
    17:00 +10°C° 0 mm 3 mps 733 mmHg 47%
    18:00 +8°C° 0 mm 3 mps 734 mmHg 53%
    19:00 +6°C° 0 mm 2 mps 734 mmHg 60%
    20:00 +5°C° 0 mm 2 mps 734 mmHg 62%
    21:00 +6°C° 0 mm 1 mps 735 mmHg 64%
    22:00 +5°C° 0 mm 1 mps 735 mmHg 66%
    23:00 +5°C° 0 mm 1 mps 735 mmHg 67%

    26 September, Wednesday

    Time Temperature Precipitation Wind Pressure Humidity
    00:00 +4°C° 0 mm 1 mps 735 mmHg 69%
    01:00 +4°C° 0 mm 1 mps 735 mmHg 70%
    02:00 +4°C° 0 mm 1 mps 735 mmHg 71%
    03:00 +4°C° 0 mm 1 mps 735 mmHg 73%
    04:00 +3°C° 0 mm 1 mps 735 mmHg 74%
    05:00 +4°C° 0 mm 1 mps 736 mmHg 69%
    06:00 +5°C° 0 mm 1 mps 736 mmHg 65%
    07:00 +6°C° 0 mm 1 mps 736 mmHg 61%
    08:00 +8°C° 0 mm 2 mps 736 mmHg 53%
    09:00 +10°C° 0 mm 2 mps 737 mmHg 45%
    10:00 +13°C° 0 mm 3 mps 737 mmHg 37%
    11:00 +14°C° 0 mm 3 mps 737 mmHg 35%
    12:00 +16°C° 0 mm 3 mps 736 mmHg 33%
    13:00 +17°C° 0 mm 3 mps 736 mmHg 31%
    14:00 +16°C° 0 mm 2 mps 735 mmHg 33%
    15:00 +16°C° 0 mm 2 mps 735 mmHg 34%
    16:00 +16°C° 0 mm 2 mps 735 mmHg 36%
    17:00 +13°C° 0 mm 2 mps 735 mmHg 44%
    18:00 +10°C° 0 mm 1 mps 735 mmHg 52%
    19:00 +8°C° 0 mm 1 mps 735 mmHg 60%
    20:00 +7°C° 0 mm 1 mps 735 mmHg 61%
    21:00 +7°C° 0 mm 1 mps 735 mmHg 63%
    22:00 +6°C° 0 mm 1 mps 735 mmHg 64%
    23:00 +6°C° 0 mm 1 mps 735 mmHg 64%

    27 September, Thursday

    Time Temperature Precipitation Wind Pressure Humidity
    00:00 +6°C° 0 mm 1 mps 734 mmHg 63%
    01:00 +6°C° 0 mm 1 mps 734 mmHg 63%
    02:00 +6°C° 0 mm 1 mps 734 mmHg 61%
    03:00 +6°C° 0 mm 1 mps 734 mmHg 59%
    04:00 +6°C° 0 mm 1 mps 733 mmHg 56%
    05:00 +7°C° 0 mm 1 mps 733 mmHg 53%
    06:00 +8°C° 0 mm 1 mps 733 mmHg 50%
    07:00 +10°C° 0 mm 1 mps 733 mmHg 46%
    08:00 +13°C° 0 mm 1 mps 733 mmHg 39%
    09:00 +16°C° 0 mm 1 mps 733 mmHg 32%
    10:00 +21°C° 0 mm 1 mps 733 mmHg 25%
    11:00 +21°C° 0 mm 1 mps 733 mmHg 24%
    12:00 +21°C° 0 mm 2 mps 733 mmHg 22%
    13:00 +23°C° 0 mm 2 mps 732 mmHg 21%
    14:00 +21°C° 0 mm 2 mps 732 mmHg 24%
    15:00 +21°C° 0 mm 2 mps 731 mmHg 28%
    16:00 +20°C° 0 mm 2 mps 731 mmHg 31%
    17:00 +17°C° 0 mm 2 mps 731 mmHg 37%
    18:00 +14°C° 0 mm 1 mps 730 mmHg 42%
    19:00 +12°C° 0 mm 1 mps 730 mmHg 47%
    20:00 +11°C° 0 mm 1 mps 730 mmHg 48%
    21:00 +11°C° 0 mm 1 mps 730 mmHg 48%
    22:00 +10°C° 0 mm 1 mps 730 mmHg 48%
    23:00 +10°C° 0 mm 1 mps 730 mmHg 47%

    28 September, Friday

    Time Temperature Precipitation Wind Pressure Humidity
    00:00 +10°C° 0 mm 1 mps 729 mmHg 46%
    01:00 +10°C° 0 mm 1 mps 729 mmHg 45%
    02:00 +10°C° 0 mm 1 mps 729 mmHg 44%
    03:00 +10°C° 0 mm 1 mps 728 mmHg 43%
    04:00 +10°C° 0 mm 1 mps 728 mmHg 42%
    05:00 +10°C° 0 mm 1 mps 728 mmHg 42%
    06:00 +11°C° 0 mm 1 mps 728 mmHg 42%
    07:00 +12°C° 0 mm 1 mps 728 mmHg 42%
    08:00 +15°C° 0 mm 1 mps 728 mmHg 37%
    09:00 +19°C° 0 mm 1 mps 728 mmHg 33%
    10:00 +22°C° 0 mm 1 mps 728 mmHg 28%
    11:00 +23°C° 0 mm 2 mps 727 mmHg 28%
    12:00 +25°C° 0 mm 2 mps 727 mmHg 28%
    13:00 +26°C° 0 mm 2 mps 726 mmHg 28%
    14:00 +25°C° 0 mm 2 mps 726 mmHg 31%
    15:00 +25°C° 0 mm 2 mps 725 mmHg 35%
    16:00 +24°C° 0 mm 2 mps 725 mmHg 39%
    17:00 +21°C° 0 mm 1 mps 724 mmHg 46%
    18:00 +18°C° 0 mm 1 mps 724 mmHg 53%
    19:00 +14°C° 0 mm 1 mps 724 mmHg 61%
    20:00 +14°C° 0 mm 1 mps 724 mmHg 62%
    21:00 +13°C° 0 mm 1 mps 724 mmHg 64%
    22:00 +13°C° 0 mm 1 mps 723 mmHg 65%
    23:00 +12°C° 0 mm 1 mps 723 mmHg 66%
    Show more